Location: Chandler
(33.3060°N, 111.8410°W)
Time: 11:50:05
(UTC-07:00)

Amateur Radio Satellites - All Passes

Search period start: 02 September 2014 11:20
Search period end: 03 September 2014 11:20
Location: Chandler, 33.3060°N, 111.8410°W

Satellite Date Start Highest point End Downlink Frequencies (MHz)
Time Altitude Azimuth
MaSat-1 02 Sep 11:27:51 11:32:03 32° 105° (ESE) 11:36:32 437.345 MHz
PANSAT 02 Sep 11:41:24 11:45:03 40° 178° (S) 11:48:41 not established
SO-50 02 Sep 12:13:42 12:18:31 75° 243° (WSW) 12:23:21 436.795 FM
UOSAT-12 02 Sep 12:19:39 12:20:52 11° 45° (NE) 12:22:04 437.025 FM, 437.400 FM
Oscar 19 02 Sep 12:35:24 12:39:52 31° 70° (ENE) 12:44:22 437.125 CW, 437.150 USB
AO-Echo 02 Sep 12:41:16 12:44:04 15° 67° (ENE) 12:46:50 ?
JAS-1B 02 Sep 13:03:48 13:12:36 41° 68° (ENE) 13:20:35 435.800 - 435.900 CW/SSB
MaSat-1 02 Sep 13:04:56 13:09:02 26° 301° (WNW) 13:13:19 437.345 MHz
Oscar 16 02 Sep 13:10:02 13:15:10 73° 75° (ENE) 13:20:20 437.025 USB, Beacon 2401.1428
ITAMSAT 1 02 Sep 13:14:31 13:19:02 32° 70° (ENE) 13:23:33 435.822 SSB
PANSAT 02 Sep 13:21:28 13:24:55 31° 191° (S) 13:28:21 not established
Uribyol 2 02 Sep 13:23:21 13:28:09 41° 72° (ENE) 13:32:58 436.500 FM
RS-15 02 Sep 13:24:51 13:29:52 14° 25° (NNE) 13:34:55 29.354 - 29.394 USB, Beacon 29.352 USB
TMSAT-1 02 Sep 13:40:36 13:44:03 18° 66° (ENE) 13:47:31 436.925 FM
AO-27 02 Sep 13:43:40 13:48:47 65° 74° (ENE) 13:53:54 436.795 MHz FM
UOSAT-12 02 Sep 13:56:54 14:01:38 86° 242° (WSW) 14:06:16 437.025 FM, 437.400 FM
Oscar 19 02 Sep 14:14:55 14:19:08 26° 264° (W) 14:23:24 437.125 CW, 437.150 USB
AO-Echo 02 Sep 14:17:32 14:22:26 50° 260° (W) 14:27:11 ?
Gurwin Techsat 1B 02 Sep 14:28:40 14:33:58 77° 76° (ENE) 14:39:16 435.225 FM
ISS 02 Sep 14:51:10 14:52:10 11° 28° (NNE) 14:53:10 145.800 FM
JAS-1B 02 Sep 14:53:29 15:02:47 47° 261° (W) 15:11:21 435.800 - 435.900 CW/SSB
ITAMSAT 1 02 Sep 14:54:18 14:58:28 25° 264° (W) 15:02:40 435.822 SSB
PANSAT 02 Sep 15:02:44 15:04:36 13° 202° (SSW) 15:06:27 not established
Uribyol 2 02 Sep 15:04:13 15:07:44 19° 265° (W) 15:11:17 436.500 FM
Uosat F 02 Sep 15:11:35 15:15:35 25° 69° (ENE) 15:19:34 435.120 FM
TMSAT-1 02 Sep 15:18:29 15:23:33 47° 260° (W) 15:28:39 436.925 FM
AO-7 02 Sep 15:24:33 15:32:34 54° 67° (ENE) 15:40:34 29.400 - 29.500 MHz
Sapphire 02 Sep 15:26:57 15:32:07 50° 111° (ESE) 15:37:20 437.095 MHz 1200 baud AX-25 AFSK
AO-27 02 Sep 15:26:59 15:28:39 11° 268° (W) 15:30:19 436.795 MHz FM
RS-15 02 Sep 15:35:18 15:45:57 48° 53° (NE) 15:56:57 29.354 - 29.394 USB, Beacon 29.352 USB
PCSat 02 Sep 15:55:49 16:01:12 80° 296° (WNW) 16:06:39 145.825 MHz
ISS 02 Sep 16:26:00 16:29:20 87° 40° (NE) 16:32:39 145.800 FM
OPAL 02 Sep 16:47:34 16:52:43 58° 103° (ESE) 16:57:47 ?
Uosat F 02 Sep 16:49:47 16:54:10 31° 262° (W) 16:58:35 435.120 FM
JAS-2 02 Sep 17:10:13 17:15:56 42° 73° (ENE) 17:21:07 435.800 - 435.900 CW/SSB, 435.910 FM
Sapphire 02 Sep 17:11:55 17:15:48 20° 307° (NW) 17:19:42 437.095 MHz 1200 baud AX-25 AFSK
AO-7 02 Sep 17:18:37 17:25:31 29° 262° (W) 17:32:28 29.400 - 29.500 MHz
Hamsat 02 Sep 17:26:57 17:31:10 56° 75° (ENE) 17:35:26 145.90 MHz
PCSat 02 Sep 17:44:39 17:45:27 10° 313° (NW) 17:46:16 145.825 MHz
RS-15 02 Sep 17:47:50 17:58:08 44° 252° (WSW) 18:08:52 29.354 - 29.394 USB, Beacon 29.352 USB
OPAL 02 Sep 18:28:09 18:31:02 15° 297° (WNW) 18:33:56 ?
STRAND 1 02 Sep 18:36:54 18:41:26 32° 98° (E) 18:45:58 ?
JAS-2 02 Sep 18:56:25 19:01:03 22° 263° (W) 19:05:21 435.800 - 435.900 CW/SSB, 435.910 FM
SO-67 02 Sep 19:15:52 19:19:10 43° 261° (W) 19:22:30 435.3500 MHz FM
HO-68 02 Sep 19:20:48 19:25:43 20° 61° (ENE) 19:30:38 435.675 MHz FM
STRAND 1 02 Sep 20:16:22 20:20:25 24° 292° (WNW) 20:24:29 ?
KITSAT 1 02 Sep 20:41:31 20:45:10 14° 100° (E) 20:48:49 435.175 FM
UKube-1 02 Sep 21:04:12 21:08:30 69° 75° (ENE) 21:12:49 145.840 MHz, 145.915 MHz
HO-68 02 Sep 21:05:40 21:12:45 67° 257° (WSW) 21:19:51 435.675 MHz FM
Oscar 11 02 Sep 21:06:58 21:11:04 43° 74° (ENE) 21:15:11 145.825 FM, Beacon 2401.500 USB
MaSat-1 02 Sep 21:26:30 21:30:07 25° 58° (ENE) 21:33:19 437.345 MHz
Saudisat 1A 02 Sep 21:30:18 21:34:40 67° 300° (WNW) 21:39:04 436.775 MHz
FUNcube-1 02 Sep 21:42:10 21:46:03 39° 73° (ENE) 21:50:01 145.950 - 145.970 MHz USB
KITSAT 1 02 Sep 22:31:19 22:39:25 89° 115° (ESE) 22:47:33 435.175 FM
Oscar 11 02 Sep 22:45:31 22:47:25 13° 267° (W) 22:49:19 145.825 FM, Beacon 2401.500 USB
MaSat-1 02 Sep 23:03:56 23:06:48 18° 259° (W) 23:09:23 437.345 MHz
Oscar 10/S400 02 Sep 23:19:25 00:00:30 70° 198° (SSW) 09:45:52 145.825 - 145.975 CW/USB, Beacon 145.810 USB
FUNcube-1 02 Sep 23:20:41 23:22:36 13° 267° (W) 23:24:34 145.950 - 145.970 MHz USB
AO-40 03 Sep 00:10:22 01:47:21 27° 228° (SW) 05:10:34 Beacon 2401.320
Sapphire 03 Sep 00:20:04 00:23:45 18° 52° (NE) 00:27:24 437.095 MHz 1200 baud AX-25 AFSK
KITSAT 1 03 Sep 00:30:17 00:35:50 20° 315° (NW) 00:41:24 435.175 FM
PCSat 03 Sep 00:48:17 00:53:12 34° 58° (ENE) 00:58:04 145.825 MHz
Oscar 19 03 Sep 00:52:22 00:55:18 15° 93° (E) 00:58:12 437.125 CW, 437.150 USB
Oscar 16 03 Sep 01:26:20 01:31:07 36° 98° (E) 01:35:51 437.025 USB, Beacon 2401.1428
ITAMSAT 1 03 Sep 01:32:37 01:35:41 16° 94° (E) 01:38:45 435.822 SSB
Uribyol 2 03 Sep 01:40:57 01:44:50 21° 95° (E) 01:48:43 436.500 FM
AO-27 03 Sep 02:01:18 02:05:57 33° 98° (E) 02:10:34 436.795 MHz FM
Sapphire 03 Sep 02:02:12 02:07:30 56° 248° (WSW) 02:12:46 437.095 MHz 1200 baud AX-25 AFSK
SO-50 03 Sep 02:24:41 02:29:07 83° 298° (WNW) 02:33:40 436.795 FM
AO-Echo 03 Sep 02:28:44 02:33:26 73° 102° (ESE) 02:38:12 ?
Oscar 19 03 Sep 02:29:50 02:34:52 51° 287° (WNW) 02:39:51 437.125 CW, 437.150 USB
PCSat 03 Sep 02:31:56 02:36:25 27° 253° (WSW) 02:40:52 145.825 MHz
JAS-1B 03 Sep 02:45:45 02:52:05 76° 103° (ESE) 02:57:47 435.800 - 435.900 CW/SSB
Gurwin Techsat 1B 03 Sep 02:49:23 02:54:26 43° 99° (E) 02:59:27 435.225 FM
Oscar 16 03 Sep 03:06:15 03:10:11 22° 292° (WNW) 03:14:06 437.025 USB, Beacon 2401.1428
ITAMSAT 1 03 Sep 03:10:23 03:15:23 49° 287° (WNW) 03:20:22 435.822 SSB
Uribyol 2 03 Sep 03:19:36 03:24:21 37° 289° (WNW) 03:29:07 436.500 FM
AO-7 03 Sep 03:32:12 03:38:09 21° 95° (E) 03:44:03 29.400 - 29.500 MHz
TMSAT-1 03 Sep 03:38:20 03:43:39 84° 284° (WNW) 03:48:57 436.925 FM
AO-27 03 Sep 03:41:07 03:45:15 25° 292° (WNW) 03:49:23 436.795 MHz FM
OPAL 03 Sep 03:58:23 04:03:22 64° 72° (ENE) 04:08:27 ?
UOSAT-12 03 Sep 04:03:52 04:08:25 78° 117° (ESE) 04:13:06 437.025 FM, 437.400 FM
Gurwin Techsat 1B 03 Sep 04:30:19 04:34:01 20° 293° (WNW) 04:37:43 435.225 FM
JAS-1B 03 Sep 04:39:21 04:41:42 12° 302° (WNW) 04:43:57 435.800 - 435.900 CW/SSB
Uosat F 03 Sep 05:00:58 05:05:58 72° 285° (WNW) 05:10:56 435.120 FM
Hamsat 03 Sep 05:18:35 05:20:50 14° 93° (E) 05:23:04 145.90 MHz
AO-7 03 Sep 05:23:12 05:31:24 68° 290° (WNW) 05:39:34 29.400 - 29.500 MHz
OPAL 03 Sep 05:40:55 05:42:37 12° 266° (W) 05:44:19 ?
UOSAT-12 03 Sep 05:47:27 05:49:08 12° 314° (NW) 05:50:49 437.025 FM, 437.400 FM
STRAND 1 03 Sep 05:49:00 05:53:24 31° 70° (ENE) 05:57:49 ?
RS-15 03 Sep 05:53:49 06:04:08 45° 109° (ESE) 06:14:12 29.354 - 29.394 USB, Beacon 29.352 USB
Saudisat 1A 03 Sep 06:01:16 06:05:08 29° 55° (NE) 06:08:57 436.775 MHz
JAS-2 03 Sep 06:07:10 06:12:28 53° 101° (E) 06:18:19 435.800 - 435.900 CW/SSB, 435.910 FM
KITSAT 1 03 Sep 06:30:20 06:36:23 22° 47° (NE) 06:42:23 435.175 FM
SO-67 03 Sep 06:44:35 06:46:44 16° 95° (E) 06:48:53 435.3500 MHz FM
Hamsat 03 Sep 06:52:54 06:56:55 38° 287° (WNW) 07:00:53 145.90 MHz
AO-7 03 Sep 07:19:56 07:22:39 12° 308° (NW) 07:25:21 29.400 - 29.500 MHz
STRAND 1 03 Sep 07:28:24 07:32:32 25° 264° (W) 07:36:41 ?
ISS 03 Sep 07:29:40 07:32:13 21° 129° (SE) 07:34:47 145.800 FM
Saudisat 1A 03 Sep 07:41:06 07:44:32 22° 249° (WSW) 07:47:57 436.775 MHz
JAS-2 03 Sep 07:53:54 07:57:14 17° 293° (WNW) 08:00:45 435.800 - 435.900 CW/SSB, 435.910 FM
RS-15 03 Sep 08:05:51 08:16:19 46° 307° (NW) 08:26:42 29.354 - 29.394 USB, Beacon 29.352 USB
SO-67 03 Sep 08:17:04 08:19:42 21° 288° (WNW) 08:22:19 435.3500 MHz FM
KITSAT 1 03 Sep 08:24:30 08:32:34 78° 246° (WSW) 08:40:35 435.175 FM
HO-68 03 Sep 08:38:31 08:44:39 30° 97° (E) 08:50:45 435.675 MHz FM
UKube-1 03 Sep 08:57:54 09:00:37 16° 95° (E) 09:03:20 145.840 MHz, 145.915 MHz
Oscar 11 03 Sep 09:01:19 09:02:28 11° 92° (E) 09:03:37 145.825 FM, Beacon 2401.500 USB
ISS 03 Sep 09:05:53 09:08:49 28° 323° (NW) 09:11:45 145.800 FM
PANSAT 03 Sep 09:36:49 09:40:06 27° 166° (SSE) 09:43:24 not established
FUNcube-1 03 Sep 09:37:18 09:38:59 12° 92° (E) 09:40:40 145.950 - 145.970 MHz USB
KITSAT 1 03 Sep 10:25:02 10:26:39 11° 261° (W) 10:28:16 435.175 FM
HO-68 03 Sep 10:25:43 10:32:23 43° 292° (WNW) 10:39:02 435.675 MHz FM
RS-15 03 Sep 10:27:59 10:32:31 13° 337° (NNW) 10:37:05 29.354 - 29.394 USB, Beacon 29.352 USB
UKube-1 03 Sep 10:32:57 10:36:52 34° 288° (WNW) 10:40:47 145.840 MHz, 145.915 MHz
Oscar 11 03 Sep 10:34:39 10:38:53 50° 285° (WNW) 10:43:04 145.825 FM, Beacon 2401.500 USB
SO-50 03 Sep 11:00:27 11:04:40 30° 55° (NE) 11:08:54 436.795 FM
MaSat-1 03 Sep 11:09:12 11:13:18 29° 104° (ESE) 11:17:38 437.345 MHz
FUNcube-1 03 Sep 11:11:08 11:15:35 52° 285° (WNW) 11:20:04 145.950 - 145.970 MHz USB
